Location: Roswell
(33.3943°N, 104.5230°W)
Time: 14:28:14
(UTC+00:00)

Vanguard 2 Rocket - Pass Details

Date: 21 November 2024
Orbit: 554 x 3296 km, 32.9° (Epoch: 30 November)

Event Time Altitude Azimuth Distance (km) Brightness Sun altitude
Exits shadow 09:34:05 23° 133° (SE) 2,832 9.5 -50.1°
Maximum altitude 09:34:07 23° 133° (SE) 2,834 9.5 -50.1°
Drops below altitude 10° 09:42:30 10° 88° (E) 4,608 11.0 -48.3°
Sets 09:48:12 0° 77° (ENE) 6,144 11.8 -47.2°
